Regional Weather Roundup
Issued by NWS

Home | Current Version | Previous Version | Graphics & Text | Print | Product List | Glossary On
Versions: 1 2 3 4 5 6 7 8 9 10 11 12 13 14 15 16 17 18 19 20 21 22 23 24 25 26 27
000
ASUS45 KBOU 280507
RWRCO

WEATHER ROUNDUP FOR COLORADO
NATIONAL WEATHER SERVICE DENVER/BOULDER CO
1100 PM MDT TUE JUN 27 2017

NOTE: "FAIR" INDICATES FEW OR NO CLOUDS BELOW 12000 FEET WITH NO
SIGNIFICANT WEATHER AND/OR OBSTRUCTIONS TO VISIBILITY.

COZ001>005-013-030-031-280600-
...NORTHWEST COLORADO...

CITY           SKY/WX    TMP DP  RH WIND       PRES   REMARKS
CRAIG          FAIR      60  36  40 SW5       30.02R
HAYDEN         FAIR      63  28  27 W7        30.04R
MEEKER         FAIR      65  36  34 CALM      30.04R
RABBIT EARS PA FAIR      50  32  50 W8        30.33R
STEAMBOAT SPGS FAIR      62  37  38 CALM      30.06R
WALDEN         FAIR      52  36  54 S5        30.17R
$$

COZ006>008-011-280600-
...WEST CENTRAL VALLEYS...

CITY           SKY/WX    TMP DP  RH WIND       PRES   REMARKS
GRAND JUNCTION FAIR      79  33  19 NW10      29.84R
MONTROSE       FAIR      70  20  15 SE7       29.95R
EAGLE          FAIR      69  30  23 CALM      30.05R
RIFLE          FAIR      73  25  16 VRB5      29.92R
DELTA          FAIR      73  19  13 NE6       29.88S
NUCLA          FAIR      72  10   9 E10       29.99R
$$

COZ017>023-064>068-280600-
...SOUTHWEST COLORADO...

CITY           SKY/WX    TMP DP  RH WIND       PRES   REMARKS
DURANGO        FAIR      62  22  21 NE5       30.04R
CORTEZ         FAIR      59  24  26 E8        29.98R
PAGOSA SPRINGS FAIR      61  20  20 CALM      30.13S
TELLURIDE      FAIR      59  15  17 SE8       30.26S
WOLF CREEK PAS FAIR      52  12  20 SW7G16    30.51S
$$

COZ009-010-012-014-032>034-037-058>063-280600-
...CENTRAL COLORADO...

CITY           SKY/WX    TMP DP  RH WIND       PRES   REMARKS
ASPEN          FAIR      56  29  35 S9        30.11R
BUENA VISTA    FAIR      58  20  22 CALM      30.11S
COPPER MTN     FAIR      54  19  26 NW12      30.44S
BERTHOUD PASS  FAIR      45  32  61 NW25G31   30.45F
COTTONWOOD PAS FAIR      64   9  11 W5        30.27S
GUNNISON       FAIR      57  33  40 NE6       30.11R
KREMMLING      FAIR      68  34  28 NW7       30.10R
LEADVILLE      FAIR      50  20  30 NE8       30.26S
MONARCH PASS   FAIR      52  18  25 W21       30.54R
SALIDA         FAIR      66  22  18 SW10      30.15R
SUNLIGHT       FAIR      55  23  28 NW5       30.38R
WILKERSON PASS FAIR      55  16  21 NW5       30.42S
$$

COZ069>075-280600-
...SAN LUIS VALLEY/SANGRE DE CRISTO MOUNTAINS...

CITY           SKY/WX    TMP DP  RH WIND       PRES   REMARKS
ALAMOSA        FAIR      52  32  46 SW3       30.08R
DEL NORTE      FAIR      57  24  27 W8        30.14R
LA VETA PASS   FAIR      59  23  25 MISG      30.41R
SAGUACHE       FAIR      61  21  21 N7        30.12S
$$

COZ035-036-038>040-280600-
...NORTHERN COLORADO FRONT RANGE...

CITY           SKY/WX    TMP DP  RH WIND       PRES   REMARKS
DENVER INTL AP FAIR      66  39  37 E7        29.92R
DMNS CITY PARK   N/A     67  39  35 E8        29.93R
AURORA         PTCLDY    67  39  36 NE6       29.95R
FRONT RANGE AP FAIR      68  37  32 E8        29.94R
ERIE MUNI ARPT FAIR      65  40  39 CALM      29.92R
BOULDER MUN AP FAIR      70  39  32 E9        29.89F
CENTENNIAL     FAIR      71  36  27 E8        29.96R
BROOMFIELD     FAIR      64  37  36 W3        29.95R
FORT COLLINS   FAIR      70  42  36 SW14      29.90R
LONGMONT       FAIR      71  41  33 SE7       29.90R
$$

COZ041-046-047-076>085-087-088-280600-
...PIKES PEAK/PALMER DIVIDE AND SOUTHERN FOOTHILLS...

CITY           SKY/WX    TMP DP  RH WIND       PRES   REMARKS
COLO. SPRINGS  FAIR      73  34  23 NE21      29.95R
A. F. ACADEMY  FAIR      67  33  28 NW7       30.00R
SCHRIEVER AFB  FAIR      70  34  25 N20G26    29.96R
CHEYENNE MTN   FAIR      73  22  15 N16G23    29.97R
ELLICOTT       FAIR     N/A N/A N/A N12       29.93R
FALCON           N/A     69  32  25 N7G23     30.03R
FORT CARSON    FAIR      72  26  18 N8        29.91R
LIMON          FAIR      70  38  31 N21       29.91R
MONUMENT HILL  FAIR      63  34  34 NE8       30.06R
CANON CITY     CLEAR     77  27  15 W8        29.88R
WALSENBURG     FAIR      70  36  28 SW12      29.94S
TRINIDAD       FAIR      67  41  38 W3        29.91S
$$

COZ042>045-048>051-090-091-280600-
...NORTHEAST COLORADO...

CITY           SKY/WX    TMP DP  RH WIND       PRES   REMARKS
GREELEY ARPT   FAIR      68  43  40 SE6       29.87R
AKRON          FAIR      68  42  38 N12       29.86S
BURLINGTON     FAIR      68  56  65 SE21G28   29.78R
WRAY           FAIR      73  46  38 N12       29.81R
YUMA           FAIR      68  41  37 N9        29.83R
STERLING       FAIR      68  48  49 NE7       29.82R
HOLYOKE        NOT AVBL
FORT MORGAN    FAIR      66  41  39 N8        29.87R
$$

COZ086-089-092>099-280600-
...SOUTHEAST COLORADO...

CITY           SKY/WX    TMP DP  RH WIND       PRES   REMARKS
PUEBLO         FAIR      73  35  25 W5        29.80R
LA JUNTA       FAIR      84  48  28 S21G30    29.74R
LAMAR          FAIR      84  48  28 SW25G39   29.68S
SPRINGFIELD      N/A     74  52  46 S23G33    29.84S
$$




USA.gov is the U.S. government's official web portal to all federal, state and local government web resources and services.